NOAA 21 (JPSS-2)

Last updated on Sun Jun 21 2026 00:02:47 GMT+0000 (Coordinated Universal Time)

1 54234U 22150A 26171.41746469 .00000044 00000+0 41590-4 0 9996 2 54234 98.7059 110.1525 0001836 147.2077 212.9214 14.19565986187000
UTC large
Height (km)
Speed (km/s)
/
Latitude / Longitude
Inclination (degrees)
Orbital Period (minutes)
Azimuth
Elevation
Range (km)
Doppler Factor

Next 0 passes for location: London (51.5072 / 0.1276)

No passes found over London.
NOAA 21 (JPSS-2)